Find Starlink 11469

NORAD ID: 62227 Int'l Des: 2024-231 Owner: SPXS Country: US Constellation: starlink operational
LEOCIRCULAR

Live-Position

3D-Globus wird geladen...

Über Starlink 11469

Beschreibung wird geladen...

Nächste Überflüge

Passes for default location (London). Set your location on the main map for personalized predictions.

Höhenverlauf

Loading altitude history...

Zweizeiliger Elementsatz

1 62227U 24231K 26126.51118652 .00195182 00000-0 15787-2 0 9993
2 62227 53.1564 176.1768 0001113 62.3542 297.7589 15.69703100 82491
Epoch: 6. Mai 2026 • Age: 19 hours

Aktueller Status

Höhe 359.5 km
Geschwindigkeit 7.70 km/s
Subsatellitenpunkt 22.02°N, 0.86°E
Startdatum 5. Dez. 2024
Alter 1.4 years
Typ internet

Technische Details

Klassifizierung Payload
Masse 960.00 kg
Trockenmasse 910.00 kg
Gesamtmasse 960.00 kg
Länge 0.30 m
Durchmesser 4.10 m
Spannweite 29.00 m
Form Box + pan
Hersteller SPXS
Bus-Typ Starlink V2MD
Phasenstatus In Orbit
Besitzer/Staat SPXS/US

Most Searched